RH
59 57 56 54 52 50 49 49 51 54 55 56 57 57 56 56 59 58 57 58 60 63 63 60 61 61 57 56 53 46 42 43 41 43 49 51 49 48 45 44 43 43 43 42 40 40 38 38 38 37 37 36 35 35 34 35 35 37 39 41 44 46 49 52 54 57 58 59 60 61 61 61 60 59 59 59 60 60 62 63 65 67 69 70 70 69
60 59 58 57 56 55 55 54 57 60 62 62 60 60 59 58 61 62 60 59 60 63 65 64 67 69 63 61 63 62 61 58 51 47 48 49 49 48 47 45 45 44 44 43 42 41 39 38 38 37 37 37 36 36 34 34 34 34 35 35 35 36 36 38 39 41 43 45 46 48 50 51 52 54 54 55 56 57 58 59 60 62 63 63 62 60
62 62 61 59 58 56 57 58 61 65 66 65 63 63 63 59 61 65 64 62 62 63 65 65 69 74 69 64 66 69 72 71 66 64 62 56 51 47 45 45 45 45 45 45 44 43 42 40 40 40 39 39 37 37 36 36 36 35 34 34 34 34 34 35 35 35 36 35 35 35 36 36 37 38 39 40 42 43 44 46 47 49 51 52 53 53
64 66 65 63 60 57 57 57 61 68 69 68 66 65 68 65 60 64 66 66 66 64 66 67 71 78 74 68 71 73 79 82 75 78 80 72 64 56 50 47 45 46 45 44 44 43 43 42 41 42 41 42 41 41 41 40 40 38 37 37 37 38 39 40 40 39 39 37 37 36 36 36 36 36 37 37 38 38 37 36 36 36 36 37 39 40
66 69 69 67 63 60 59 59 63 69 72 73 69 66 72 71 64 63 65 66 68 67 69 70 71 82 80 75 84 86 85 87 81 84 86 78 73 69 64 59 53 51 49 46 45 43 43 43 42 43 43 44 44 44 45 44 44 44 44 44 43 43 44 45 45 46 45 45 45 46 46 45 45 45 45 45 46 45 44 42 41 40 39 39 40 41
69 71 71 69 69 67 63 64 67 71 75 78 74 70 73 74 70 68 65 64 66 67 73 75 71 79 84 85 97 96 87 88 84 82 79 73 72 70 69 67 63 61 59 56 55 50 47 46 45 46 46 47 47 47 46 45 45 47 47 48 47 47 47 47 48 49 49 50 51 52 52 52 51 50 50 51 51 50 49 48 48 47 47 47 47 47
72 72 72 71 74 73 70 71 71 72 77 80 80 77 75 75 73 71 68 63 63 66 75 87 78 70 85 103 106 96 91 98 98 88 73 63 65 65 65 68 66 67 69 71 74 71 67 64 60 59 56 55 55 54 52 51 50 50 50 49 49 49 49 49 49 49 50 51 52 52 52 51 51 51 52 52 52 50 50 49 49 49 49 48 48 48
72 73 73 74 78 79 78 79 77 75 77 80 83 83 80 78 75 72 70 63 63 64 73 97 89 61 73 107 113 102 97 99 103 99 78 57 54 57 59 62 63 66 71 75 79 80 80 78 77 77 74 72 72 69 65 62 60 59 59 58 56 55 53 52 51 49 48 49 50 51 52 53 54 54 55 53 52 51 50 50 49 49 49 48 48 48
72 74 76 79 83 84 85 85 84 81 79 80 83 84 82 80 77 72 67 66 66 61 71 101 99 61 60 93 112 111 102 94 93 91 78 64 59 59 59 61 63 67 73 78 80 80 79 79 80 81 82 83 84 83 81 78 76 74 72 69 67 66 64 62 59 56 55 54 53 52 52 54 56 57 57 55 54 53 53 53 52 52 51 51 50 50
74 78 80 86 88 86 88 87 89 88 83 84 84 83 83 80 77 69 65 69 65 57 72 95 92 66 58 82 106 112 108 101 94 87 84 86 85 80 73 69 69 72 77 84 90 91 87 83 81 77 76 77 78 78 80 82 84 84 84 83 81 81 78 74 71 68 66 64 62 60 60 60 60 60 60 58 57 57 57 57 57 56 55 55 54 54
78 81 85 90 88 84 88 90 93 91 87 88 85 84 86 79 72 67 65 70 62 57 71 81 79 70 61 74 98 107 108 109 105 100 100 102 103 101 92 81 76 75 77 84 93 99 96 88 83 78 74 72 70 69 69 71 74 77 79 81 84 87 87 86 85 81 78 75 71 70 69 68 67 67 65 63 62 61 61 60 61 61 60 60 60 61
84 87 90 93 89 87 93 97 96 92 90 91 88 90 89 78 70 67 65 66 60 59 68 70 70 68 66 80 95 100 105 109 109 107 104 103 104 106 104 96 88 81 78 82 91 101 105 97 87 82 77 73 71 71 70 67 65 66 69 70 73 77 79 81 83 84 84 83 82 80 77 74 71 69 67 67 68 67 66 65 64 62 61 62 63 64
91 95 95 91 92 99 104 103 98 95 94 94 97 100 92 81 77 69 62 62 60 59 61 63 61 59 71 85 87 93 102 105 108 110 106 105 105 104 106 106 103 98 93 93 95 98 104 107 100 92 87 79 72 71 72 72 69 66 67 69 71 71 71 71 72 74 76 77 78 78 78 78 76 72 69 69 70 71 72 71 70 68 66 65 65 66
94 99 96 87 91 101 107 108 103 99 100 101 105 104 94 90 86 73 63 59 56 55 52 51 49 54 72 76 70 78 86 88 99 108 108 109 108 105 107 108 107 107 106 103 103 100 99 104 106 104 100 91 80 74 75 79 79 74 71 72 74 75 74 73 73 74 75 75 74 73 73 74 75 76 74 71 70 70 72 74 75 76 76 75 74 75
90 93 93 88 89 93 96 100 97 96 100 100 99 96 89 91 87 76 70 62 55 51 44 43 41 46 59 56 51 60 65 70 85 96 104 109 108 102 102 107 108 109 110 107 106 106 101 101 102 103 103 100 96 92 89 89 89 85 79 76 79 82 82 81 78 77 78 79 77 74 72 72 73 75 76 75 73 71 72 74 76 77 79 80 82 84
90 93 94 88 90 95 93 88 86 91 93 85 82 83 83 84 82 79 74 64 60 52 40 41 42 42 45 34 31 44 49 54 62 67 76 84 86 82 79 86 95 101 108 109 110 111 108 106 105 103 100 99 98 96 93 91 92 94 92 87 86 88 90 91 88 83 81 82 82 79 77 74 72 72 72 75 76 74 72 70 72 75 79 81 84 86
94 99 101 94 93 100 96 88 89 91 83 71 70 75 78 77 76 80 74 64 65 58 44 44 43 42 40 24 22 35 36 37 42 43 48 53 58 60 55 55 62 72 84 93 100 105 107 109 109 106 105 103 100 97 93 90 88 93 100 100 96 94 96 99 101 97 89 85 84 84 85 83 80 77 74 75 78 80 79 74 72 73 77 81 84 87
96 93 101 101 96 97 98 97 95 89 77 71 72 73 74 72 69 72 69 61 63 58 45 41 35 33 32 23 25 35 33 34 37 36 39 41 44 48 47 44 42 45 53 64 75 82 88 95 100 101 102 102 103 103 101 98 92 90 96 102 103 101 99 99 102 103 98 93 90 88 88 88 86 84 81 79 80 84 89 92 91 86 82 82 83 84
94 85 90 98 97 96 98 97 90 82 76 76 77 74 74 72 65 61 56 51 53 48 36 31 26 23 25 24 26 32 34 36 37 35 36 37 38 39 41 41 39 35 34 39 51 58 63 71 80 86 89 88 89 91 92 94 93 90 90 95 100 104 102 98 98 100 101 101 100 97 94 91 86 83 82 80 80 81 86 96 104 104 100 96 93 90
91 82 78 88 97 95 92 87 79 77 77 76 75 72 70 65 56 47 40 39 41 36 27 24 21 19 20 22 24 26 28 29 30 31 32 31 32 32 31 32 34 34 30 26 29 37 43 48 55 64 72 75 76 76 76 78 79 81 81 83 88 94 98 99 100 101 101 101 101 101 101 100 96 91 87 83 78 75 75 78 86 93 97 98 97 96
88 81 75 82 91 89 83 78 75 75 74 70 64 59 54 48 41 34 29 31 33 29 24 21 18 16 16 19 21 20 19 20 21 22 24 25 25 25 25 25 26 29 31 27 23 22 25 30 35 40 47 55 59 61 62 61 61 62 64 67 71 75 82 91 96 99 102 102 100 100 102 104 103 100 97 93 86 79 74 68 66 69 75 80 83 84
86 83 77 77 78 78 76 74 72 69 63 56 48 41 39 37 34 31 27 26 26 24 22 20 15 13 13 15 16 15 14 15 16 17 19 20 22 22 23 23 23 24 27 30 28 24 20 21 25 28 31 36 41 45 48 48 47 46 45 46 49 53 58 66 75 84 93 99 101 103 104 105 105 103 102 102 97 92 86 78 69 63 62 64 67 71
86 82 74 69 67 67 69 67 65 59 49 41 35 32 33 33 31 28 24 22 19 17 18 18 13 11 13 15 14 13 14 13 13 15 16 17 19 21 22 22 23 23 24 26 28 28 26 22 21 23 26 28 31 34 38 40 41 40 38 35 34 35 37 41 47 55 66 78 89 100 106 108 108 105 104 104 103 102 101 96 89 81 74 71 70 70
82 75 67 62 59 60 63 58 49 42 35 30 28 30 31 29 27 25 22 19 15 14 16 17 13 12 15 16 14 14 13 13 13 13 14 15 16 18 20 21 22 23 24 24 25 27 28 27 25 24 24 25 27 28 29 32 34 37 38 37 34 31 30 29 31 34 39 48 59 73 87 99 107 109 108 107 104 103 103 102 102 98 93 90 88 86
74 68 64 60 52 46 43 38 32 29 28 28 28 29 30 30 28 26 24 22 18 17 19 19 17 16 17 18 17 15 13 13 13 13 13 15 16 17 18 20 22 23 23 24 25 26 27 28 28 27 25 25 25 26 27 28 29 31 33 36 37 36 34 31 29 29 30 32 37 43 53 66 80 91 99 104 104 105 106 106 108 108 104 101 102 101
67 66 64 55 40 29 24 24 24 23 24 26 27 26 27 29 30 29 28 26 24 22 23 26 24 21 21 22 21 19 17 16 15 15 15 15 16 17 17 18 20 22 22 23 24 25 25 26 26 26 26 25 24 25 25 26 27 28 29 31 33 36 37 37 34 32 31 31 32 34 37 41 48 56 64 71 76 82 87 91 96 100 99 100 100 100
64 60 51 39 30 26 25 24 22 20 21 24 24 24 24 25 27 28 27 26 25 23 24 27 26 23 24 25 24 23 23 22 21 20 19 18 17 16 16 17 19 21 22 22 22 23 23 24 24 24 24 24 24 24 24 25 25 26 27 29 30 32 34 37 39 39 38 36 35 35 36 37 39 42 45 49 51 54 57 60 64 68 70 73 75 76
57 45 35 30 29 30 27 24 22 22 23 24 24 24 23 23 23 24 23 22 22 21 21 22 22 22 23 23 24 25 25 24 25 24 22 22 21 20 19 19 20 21 21 21 21 22 23 24 25 24 24 23 23 23 24 24 24 25 26 27 28 29 31 33 36 39 41 42 41 40 39 38 38 40 42 45 48 50 52 53 54 55 56 58 59 60
42 33 29 28 29 31 29 26 26 26 26 25 26 25 24 23 23 23 22 22 22 21 20 20 20 21 22 22 23 25 25 26 26 26 27 27 28 27 25 25 25 25 25 24 23 22 23 25 26 26 26 25 25 25 25 25 25 24 24 24 25 26 27 28 30 33 36 39 41 42 42 42 41 40 41 42 44 47 50 53 55 56 57 58 59 61
31 27 25 24 28 33 33 30 28 28 29 28 28 27 27 26 25 26 25 24 24 25 24 22 22 23 22 23 25 25 25 24 24 25 27 28 29 29 28 28 29 29 29 28 27 26 26 27 27 27 27 27 28 28 29 29 29 28 27 27 27 27 27 27 27 28 29 31 34 37 39 41 42 42 43 42 43 44 45 48 50 52 54 56 58 59
25 24 24 24 29 34 34 31 30 29 28 28 28 27 27 26 25 26 25 24 24 25 25 23 23 23 23 23 25 26 25 24 23 24 25 27 28 27 26 28 29 30 30 30 30 30 30 30 30 30 29 29 30 30 30 30 30 30 29 29 29 28 27 27 26 26 25 26 27 29 32 35 37 39 41 42 42 43 44 44 46 47 49 51 53 56
24 25 26 27 29 33 33 30 29 28 26 26 26 24 23 23 23 23 23 23 23 23 24 23 22 23 23 24 25 25 25 24 23 23 25 26 25 23 22 24 26 27 28 28 29 29 30 31 30 30 29 28 28 27 27 27 26 25 25 24 23 22 21 20 20 20 20 21 21 23 24 26 28 31 34 36 38 39 40 41 42 43 45 47 49 51
27 28 29 29 29 32 34 32 31 31 29 28 27 26 24 24 23 23 22 22 22 20 19 19 19 19 20 21 22 23 24 24 24 25 28 28 25 21 20 20 21 21 22 22 23 24 25 25 25 25 25 25 24 24 23 22 21 19 18 16 15 13 12 12 12 12 12 13 14 16 18 19 21 23 25 27 29 30 32 33 35 36 37 39 41 43
31 31 31 30 29 32 35 34 35 36 35 34 32 30 29 28 26 24 23 24 24 22 19 17 17 18 19 19 19 20 21 22 23 25 28 27 24 21 20 20 19 19 18 18 18 18 19 19 19 20 20 19 19 19 19 18 16 14 12 10 9 8 8 8 8 8 9 9 11 12 13 14 15 16 17 18 19 20 22 23 24 26 27 29 31 33
33 32 33 33 32 33 34 34 35 36 38 39 37 34 33 32 28 24 24 27 28 24 20 17 16 17 17 17 17 16 17 17 18 20 22 21 19 18 18 18 18 17 17 17 16 16 16 16 16 17 17 16 16 15 14 13 11 9 8 8 7 7 7 7 7 7 7 8 9 9 10 11 12 12 12 12 13 13 14 15 16 17 18 19 21 23
35 35 36 36 36 36 36 36 36 35 36 37 37 35 35 33 27 22 22 28 31 27 21 17 16 15 14 13 13 13 13 13 15 17 17 15 14 14 14 14 14 15 16 16 16 16 15 14 14 14 15 15 14 13 11 9 8 7 7 7 7 6 6 6 7 7 7 7 7 7 8 8 9 9 9 9 9 10 10 11 11 12 12 13 14 15
38 39 38 37 37 38 37 36 37 36 35 35 34 34 34 33 27 21 19 24 29 27 22 19 16 14 13 11 10 10 9 10 12 15 15 13 11 11 11 11 11 12 12 13 12 12 11 11 12 11 11 12 11 10 9 8 7 7 7 6 6 6 6 5 6 6 6 6 6 6 7 7 7 7 8 8 8 8 9 9 9 9 9 10 10 11
39 39 38 37 36 37 36 35 34 34 32 31 30 32 33 30 25 19 15 16 20 19 17 15 12 11 11 10 9 8 8 8 10 14 14 11 10 10 9 9 10 9 10 10 9 9 9 10 10 10 9 9 8 7 7 6 6 6 7 6 6 5 5 5 5 5 6 6 6 6 6 6 6 6 7 7 8 8 8 8 8 8 9 9 9 9
35 35 35 35 34 34 34 33 31 30 27 24 24 26 27 24 20 16 12 11 13 13 11 9 8 8 8 8 8 9 9 8 9 13 14 11 10 9 9 8 9 9 9 9 8 9 10 10 10 9 8 8 7 6 6 6 6 6 6 6 6 6 5 5 5 5 5 5 6 6 6 6 6 6 6 7 7 7 8 8 8 8 8 8 9 9
31 30 31 32 32 30 29 29 29 28 24 20 20 21 20 17 15 11 8 8 9 10 9 8 7 8 8 8 8 9 10 9 9 11 14 14 13 12 11 10 9 10 10 10 9 10 10 10 9 8 7 7 6 6 6 5 5 5 5 6 6 6 6 6 5 5 5 5 5 5 5 6 6 6 6 7 7 7 7 8 8 8 8 9 9 9
26 26 27 28 27 26 26 26 26 25 22 20 20 18 15 12 11 9 7 7 7 8 9 9 9 9 8 8 8 9 10 10 9 9 11 13 14 15 14 13 12 11 11 10 11 10 10 10 9 7 6 6 5 5 5 5 5 5 5 5 6 6 6 6 6 5 5 5 5 5 5 5 6 6 6 7 7 7 7 8 8 8 8 8 9 9
21 21 22 23 23 21 22 22 21 19 19 18 17 15 12 10 9 7 7 8 8 7 8 8 9 8 7 7 7 8 9 10 10 10 10 11 12 12 13 13 12 11 11 11 11 10 10 9 8 6 5 5 5 5 5 5 5 5 5 5 5 5 5 5 5 6 6 6 6 6 6 6 6 6 6 6 7 7 8 8 8 8 8 8 9 9
17 17 18 19 19 17 17 18 16 14 13 13 13 11 10 9 8 7 7 7 8 7 6 7 7 7 6 7 7 8 8 9 9 9 9 9 9 9 9 10 10 11 12 13 12 10 9 8 7 5 5 4 4 4 4 5 5 5 5 5 5 5 5 4 5 5 5 6 6 6 6 6 6 6 6 6 6 7 7 8 8 8 8 9 9 9
17 17 17 16 16 14 13 13 12 10 9 10 9 9 9 9 8 7 6 6 6 6 6 6 6 6 6 6 6 7 8 8 8 8 8 7 7 7 8 8 9 10 12 13 12 10 8 7 6 5 5 4 4 4 4 5 5 5 6 6 5 5 5 5 5 5 5 5 6 6 6 6 6 6 6 6 7 7 7 7 7 8 8 8 9 9
17 16 15 13 13 12 10 9 8 8 8 9 9 8 8 7 6 6 5 5 5 5 5 5 5 5 5 5 5 6 7 6 7 7 7 7 7 8 8 9 9 10 11 11 11 9 7 6 5 4 4 4 4 4 4 5 5 5 5 5 6 6 6 5 5 5 5 5 5 5 6 6 6 7 7 7 7 7 7 7 7 7 7 8 8 8
15 13 12 11 10 9 8 8 7 7 8 8 8 8 7 6 6 5 5 4 4 5 5 5 5 4 5 5 5 5 6 6 6 7 7 7 8 8 8 9 9 9 9 8 8 7 6 5 4 4 4 4 4 4 4 4 5 5 5 5 5 6 6 6 5 5 5 5 5 5 5 6 6 6 7 7 7 7 8 8 7 7 7 7 7 8
13 11 9 8 8 7 7 6 6 6 7 7 6 6 5 5 5 5 5 4 4 5 5 5 5 5 5 5 5 5 6 6 5 6 7 8 8 8 8 8 7 7 6 5 5 5 5 4 4 4 4 4 4 4 4 5 5 5 5 6 6 6 6 5 5 5 5 5 5 5 5 6 6 7 7 7 7 7 7 7 7 7 7 7 7 7
9 8 7 6 6 6 6 6 5 5 5 5 5 5 5 5 5 5 6 5 5 5 5 5 5 5 5 5 5 5 6 6 6 7 8 8 8 8 8 7 6 5 5 5 5 5 4 4 4 4 4 4 4 4 5 5 5 5 5 6 6 6 6 5 5 5 5 5 5 5 5 6 6 6 7 7 7 7 7 7 7 7 7 7 8 8
6 6 6 5 6 6 5 5 4 4 5 5 5 5 5 5 5 5 6 7 6 6 6 5 6 6 6 6 5 5 6 6 6 6 7 7 7 7 6 6 5 5 5 5 5 5 5 5 4 4 4 5 4 5 5 5 5 5 6 6 6 6 5 5 6 6 5 6 6 6 6 6 6 6 7 6 6 7 7 7 7 7 7 7 8 8
6 6 5 5 5 4 4 4 3 3 4 4 5 5 5 5 5 5 6 6 6 6 5 5 6 6 6 5 5 5 5 6 6 6 6 6 6 5 5 5 5 5 5 5 5 5 5 5 5 5 5 5 5 5 5 5 5 5 6 6 6 6 6 6 6 6 6 6 6 6 6 6 7 6 6 6 6 7 7 7 7 7 7 7 7 8
6 5 5 4 4 3 3 3 3 3 3 4 4 5 4 4 5 5 6 6 6 5 5 5 5 5 5 5 4 4 4 5 5 5 5 5 5 5 5 5 5 5 6 6 6 5 5 5 5 5 5 5 5 5 5 6 6 6 6 7 7 6 6 6 6 6 7 7 7 7 7 7 7 7 7 7 7 7 7 7 7 7 7 8 8 8
Wind_Speed
50 51 51 51 51 50 50 49 49 49 48 48 48 48 47 46 48 47 45 46 46 46 49 47 45 49 50 49 48 46 44 46 48 50 52 54 55 56 56 57 58 59 62 64 64 64 65 65 66 67 68 70 71 73 74 76 77 79 80 82 84 87 89 90 92 94 95 96 97 98 99 100 101 101 102 102 103 104 106 107 108 109 111 112 114 114
52 52 52 52 52 52 52 51 50 50 50 50 49 49 49 46 47 48 46 45 45 44 47 46 46 50 51 49 49 47 47 48 48 48 51 53 53 55 56 57 59 60 62 63 63 64 64 64 65 66 67 69 70 71 71 72 74 75 75 76 78 81 81 82 85 87 88 90 93 94 95 97 98 98 99 100 101 102 104 105 106 108 110 111 112 112
54 55 55 54 54 54 54 53 52 53 53 52 51 50 51 49 47 48 48 45 45 44 45 45 45 50 53 51 51 49 49 52 50 49 51 51 52 53 55 58 59 60 62 63 64 64 64 64 65 66 67 69 69 70 71 72 74 74 74 75 76 77 77 78 80 81 83 85 87 88 89 90 91 92 93 94 95 96 98 100 103 105 106 107 108 108
55 57 57 57 57 57 57 55 54 55 56 55 54 52 53 53 49 48 49 47 46 45 44 44 43 48 54 53 54 52 51 54 53 52 52 50 50 52 54 56 58 59 61 63 63 64 64 64 65 66 67 68 69 70 71 73 74 74 74 75 76 76 77 78 79 80 82 83 84 85 86 87 87 87 88 89 90 91 93 95 97 98 99 99 100 100
56 58 59 60 60 60 60 59 57 57 59 59 58 55 55 56 53 50 50 48 47 46 45 43 40 44 52 54 55 55 54 57 58 55 54 52 52 53 54 56 56 57 59 60 62 63 63 64 65 66 67 68 68 69 71 73 73 73 74 75 76 76 77 78 79 80 81 82 82 83 84 85 85 86 87 87 88 90 92 93 94 94 94 94 94 94
58 59 61 62 63 63 63 62 61 60 61 62 62 59 57 57 56 54 52 50 48 47 47 47 40 37 45 53 56 57 57 62 64 61 57 55 54 55 56 58 57 57 57 58 59 61 61 63 64 65 66 67 68 70 71 72 72 73 74 75 76 76 77 78 79 80 80 80 81 82 83 84 85 85 85 86 88 90 91 92 92 92 92 92 91 92
59 61 63 64 65 66 66 66 65 63 63 64 65 64 61 60 59 57 56 53 49 46 47 51 46 34 34 47 56 57 59 64 69 68 64 58 56 57 58 59 59 58 58 58 59 60 60 61 61 62 64 65 67 69 71 71 72 74 75 75 76 76 77 78 79 80 80 80 81 83 84 84 85 84 85 87 88 89 90 90 90 90 91 91 91 91
60 62 64 65 66 68 68 69 69 68 66 66 67 67 66 65 63 61 60 56 51 47 45 51 55 39 26 37 51 53 57 65 70 73 71 63 58 58 58 59 59 59 59 59 60 61 61 61 61 61 61 61 63 66 67 69 71 73 75 76 76 77 78 79 80 80 80 81 82 83 84 84 84 85 86 88 89 89 89 89 89 90 90 90 90 90
62 63 66 67 68 69 70 72 72 72 70 69 70 70 70 69 66 65 62 59 55 47 43 51 59 47 28 32 46 50 55 62 67 73 75 71 65 62 60 59 59 59 59 60 61 63 64 64 64 63 61 61 61 62 63 65 67 69 71 73 75 76 78 79 80 81 81 82 83 84 84 85 86 87 88 89 90 89 89 89 89 90 89 89 90 90
63 65 67 68 70 71 73 74 74 75 74 74 74 74 74 73 70 68 64 63 59 49 45 52 59 52 36 32 43 52 56 60 63 68 72 74 72 69 66 64 62 61 61 61 62 64 65 66 66 66 65 65 65 64 64 65 66 67 68 69 70 72 74 76 78 79 80 81 83 83 84 86 87 88 90 91 91 91 91 91 91 91 91 91 91 91
65 67 69 71 73 74 75 76 77 78 77 78 79 78 79 77 74 71 68 67 63 53 51 55 57 54 43 37 45 54 57 58 59 63 67 71 74 74 73 71 69 67 65 64 65 66 68 68 68 68 69 69 69 68 69 69 69 68 68 68 69 70 72 73 74 75 76 77 78 80 82 84 86 88 90 91 91 92 93 93 93 93 93 93 93 93
66 69 72 74 76 78 79 79 80 80 80 82 83 83 84 81 78 75 71 71 67 59 57 57 55 53 48 47 52 56 57 57 57 60 62 66 71 74 77 76 75 73 71 70 69 69 70 71 71 71 71 71 70 70 72 73 72 71 71 72 73 74 75 75 76 75 75 75 75 76 77 79 82 84 86 88 89 91 92 93 94 95 95 95 94 95
67 70 74 77 79 81 82 82 83 83 83 85 87 88 87 86 85 81 75 73 71 65 62 59 56 54 54 56 59 59 60 59 59 61 62 65 68 72 76 78 78 78 76 75 74 73 72 73 74 74 75 75 73 72 72 73 74 74 75 76 76 77 79 79 79 79 79 78 78 78 78 78 80 81 82 83 85 88 90 92 93 93 93 94 94 95
66 68 73 77 80 83 85 85 86 86 87 88 89 91 90 90 92 87 81 78 75 70 66 62 59 58 61 63 62 62 63 62 63 65 66 67 70 72 75 77 79 80 81 80 79 79 77 76 77 77 78 79 78 77 75 75 76 77 77 77 78 79 81 81 81 82 82 82 82 82 81 81 81 81 81 81 82 84 86 88 90 91 92 92 92 93
70 69 72 77 79 82 84 86 88 89 90 91 91 92 92 93 96 93 89 85 81 77 71 67 65 65 66 67 66 66 65 66 68 70 71 72 72 73 75 77 79 82 83 84 83 83 82 81 80 80 80 81 82 82 80 79 79 80 80 80 79 81 82 83 83 83 83 84 85 85 85 84 84 84 84 83 83 84 84 85 86 88 89 90 91 91
76 73 75 79 81 82 83 85 87 89 91 91 91 93 94 95 96 97 94 91 90 87 79 74 73 73 72 69 68 69 69 70 72 72 73 74 74 74 75 77 80 82 84 86 87 86 86 85 85 85 85 84 85 85 85 84 83 84 85 85 84 84 85 86 86 87 86 86 86 87 87 88 87 87 86 86 86 87 87 86 86 85 85 86 87 88
82 79 78 81 84 84 85 86 88 90 92 91 92 93 95 95 96 98 98 95 95 94 88 83 81 80 79 73 70 73 73 74 75 75 75 76 76 76 76 77 80 82 85 87 87 88 88 88 89 89 90 89 88 88 88 88 88 88 89 89 88 89 89 89 90 91 91 90 89 89 90 90 91 90 90 89 89 90 90 90 88 87 87 86 86 87
88 84 81 83 85 87 88 89 90 93 93 93 94 94 95 96 96 98 100 98 99 99 94 90 86 83 82 77 75 77 77 76 78 78 78 78 78 79 79 79 80 82 84 86 88 89 89 89 90 92 93 92 91 91 91 91 91 92 93 93 93 93 94 94 94 94 94 94 93 93 93 94 94 94 93 93 92 92 92 92 91 91 90 90 90 89
93 89 83 83 87 89 89 91 93 95 95 96 96 96 97 98 97 98 100 100 101 101 97 93 87 84 83 80 78 79 78 78 79 79 80 80 80 81 81 81 82 83 84 85 88 91 91 90 91 93 95 95 95 94 94 94 94 94 96 96 97 98 98 99 98 97 96 96 97 97 98 98 98 98 98 97 96 95 95 94 94 94 94 94 94 93
95 94 88 85 88 90 91 93 95 96 97 97 97 97 98 98 98 97 97 99 101 102 99 94 89 84 82 81 81 80 79 78 78 78 79 79 80 81 81 82 83 85 85 85 86 90 93 93 93 93 95 97 97 97 96 96 96 96 97 98 100 101 102 102 102 101 101 100 100 100 100 101 102 102 102 101 101 100 98 98 98 98 98 98 98 97
96 97 94 90 90 92 93 95 96 97 98 98 98 98 98 99 98 97 95 95 98 100 99 96 91 84 80 81 81 79 78 77 75 75 76 77 78 79 80 81 82 84 86 87 86 88 92 95 95 95 96 97 98 98 98 98 98 98 98 99 101 102 103 104 104 104 104 104 104 103 103 104 105 106 106 106 105 104 103 102 101 101 101 101 102 102
97 98 97 94 92 93 95 97 98 98 99 99 99 98 98 99 98 98 95 93 94 96 96 96 92 84 78 78 79 77 76 75 73 73 73 74 75 76 78 79 80 82 85 87 87 87 89 92 95 96 97 97 98 99 99 99 98 98 98 99 100 101 103 104 105 106 106 107 107 107 107 108 109 110 110 110 109 109 108 107 106 105 104 104 105 105
98 99 99 97 95 94 96 98 99 100 100 99 98 97 96 96 96 95 94 91 90 89 90 92 90 82 78 78 78 76 75 74 73 72 71 71 72 73 75 76 78 80 82 84 86 87 88 90 92 95 96 97 98 99 99 99 99 98 98 98 99 99 101 102 103 105 106 107 108 109 110 112 113 114 114 114 113 113 113 113 112 111 110 110 110 110
100 101 101 99 96 96 98 100 101 100 99 97 95 94 93 93 92 92 91 90 88 84 85 89 86 81 80 80 79 77 76 75 74 73 71 70 70 71 72 73 74 76 78 80 82 84 86 88 90 92 94 95 97 98 98 98 98 98 98 98 98 98 99 99 100 102 104 105 107 110 111 113 115 116 117 118 118 117 117 117 118 117 117 116 115 115
101 102 103 102 100 97 96 97 97 96 94 93 92 91 90 90 90 90 90 90 88 84 85 88 86 82 82 83 82 81 79 78 77 76 74 73 72 72 72 72 73 73 74 75 77 79 82 84 86 88 90 92 93 95 96 96 96 97 96 97 97 97 97 98 98 99 100 102 104 106 109 111 114 116 118 120 120 120 120 121 121 121 121 121 120 120
101 102 104 105 103 101 98 96 94 91 87 86 87 87 86 86 86 87 87 88 87 85 84 86 86 83 83 85 85 84 83 82 81 80 79 77 76 75 74 73 74 74 74 73 74 75 77 79 81 83 85 88 90 91 93 94 95 95 95 95 95 96 97 98 98 98 99 100 101 104 106 108 110 113 116 118 119 120 120 121 121 121 122 122 122 122
102 102 104 104 103 103 101 98 95 91 86 84 84 84 84 84 83 84 84 84 84 83 80 82 84 81 80 83 84 84 84 84 83 83 82 81 81 80 78 75 75 75 75 74 74 74 75 76 78 80 82 84 86 88 90 92 93 94 95 95 96 96 96 97 99 100 100 101 102 103 105 106 108 110 113 115 117 118 118 119 120 120 120 121 121 121
103 102 102 101 100 100 99 97 95 92 89 87 85 84 83 82 81 81 82 81 81 80 78 78 80 79 77 79 80 80 81 82 82 82 82 82 83 82 81 78 77 76 76 76 76 75 75 76 77 79 80 82 83 85 87 90 92 93 95 96 97 98 98 98 99 100 102 103 104 105 106 107 109 110 112 114 115 117 118 118 119 119 120 120 120 120
103 101 99 97 95 96 97 96 94 93 91 89 87 85 84 83 82 81 81 81 80 80 79 78 78 78 77 77 76 77 78 79 79 80 80 81 82 82 81 79 78 78 78 79 79 78 77 77 78 80 81 83 84 85 87 89 91 93 94 95 97 98 99 100 100 101 102 104 105 107 108 110 111 112 113 115 116 117 118 120 120 121 121 121 121 121
100 98 96 93 91 92 95 94 92 91 90 89 88 86 85 83 82 82 81 81 79 79 79 78 77 78 78 77 75 76 76 77 78 78 78 80 81 80 79 78 77 78 78 79 80 80 80 80 81 82 83 84 85 87 88 90 92 94 96 97 98 99 101 102 102 102 103 104 106 107 109 111 112 113 115 116 117 118 120 121 122 123 123 124 124 124
97 95 94 92 90 90 91 91 90 89 88 87 86 84 83 82 81 80 80 80 79 77 77 78 77 77 78 77 76 76 77 77 78 78 79 80 81 80 78 77 77 78 78 79 79 79 80 81 82 83 84 85 87 88 90 91 93 95 97 98 100 101 103 103 104 105 105 105 106 107 109 110 112 114 115 116 118 119 121 122 123 124 125 126 126 126
96 95 94 93 90 88 90 90 88 88 87 86 86 85 83 82 81 81 81 81 80 78 76 76 77 77 77 77 77 77 77 78 79 79 80 81 82 82 79 77 77 77 78 78 79 79 80 81 83 84 85 86 87 88 90 91 93 94 95 97 99 101 102 103 104 104 105 105 106 106 108 109 110 111 113 115 117 119 120 122 123 124 125 126 127 127
96 95 95 94 90 88 89 90 89 89 89 89 89 88 87 86 85 84 84 85 84 82 78 76 76 76 76 76 76 76 77 79 80 81 83 83 83 82 81 79 78 78 78 78 78 78 79 80 82 83 84 85 86 86 88 90 92 92 93 95 97 99 100 100 101 101 101 102 103 103 105 106 107 108 109 111 113 115 117 119 121 122 124 125 126 127
96 96 95 95 92 89 89 90 89 90 91 91 91 91 90 90 89 88 87 88 89 87 84 81 79 78 78 78 77 75 75 76 79 81 85 85 83 81 80 79 79 78 78 77 77 76 76 77 78 80 81 82 82 83 84 87 90 91 92 93 95 96 96 96 96 96 97 97 98 99 100 101 102 103 105 106 109 110 113 115 117 119 120 121 123 124
97 97 96 96 95 92 91 91 90 90 90 91 91 91 91 91 91 90 88 90 92 91 88 85 83 82 82 81 80 78 76 76 78 82 85 85 83 80 78 77 77 77 76 76 76 75 75 75 75 76 77 78 79 80 82 85 87 88 88 90 91 91 91 92 92 92 92 93 93 95 95 96 98 99 100 101 103 104 106 109 111 112 114 115 117 118
97 97 96 96 95 93 92 92 91 91 91 91 92 92 92 93 93 92 89 90 94 95 92 88 86 86 86 84 82 81 79 78 80 85 87 85 83 80 78 76 76 76 76 76 75 75 74 73 73 73 74 75 77 77 79 81 83 83 83 85 86 86 86 86 87 88 89 89 89 90 91 91 92 93 94 95 96 98 100 102 104 105 107 108 109 110
97 97 97 96 95 94 93 92 92 92 93 94 94 93 93 94 95 94 90 89 92 94 94 92 89 88 88 86 84 83 81 78 80 86 89 87 84 82 80 78 76 75 75 75 74 73 72 71 71 72 72 72 74 75 75 76 77 77 78 80 82 81 81 81 82 83 84 85 85 86 86 86 86 87 88 90 91 93 94 96 97 98 100 101 102 103
97 97 97 96 95 95 95 93 93 93 94 95 95 94 95 96 97 96 93 90 90 92 92 92 90 89 88 87 85 84 81 77 77 83 88 87 84 83 81 79 77 75 74 74 72 71 71 71 71 72 72 71 71 72 72 72 72 72 73 76 77 76 76 76 77 77 78 79 81 81 82 82 82 83 84 86 88 89 91 92 93 93 94 95 96 97
95 95 95 95 95 95 95 95 95 95 96 95 95 95 97 98 98 97 94 90 91 92 91 90 90 89 87 85 84 83 81 77 74 78 85 86 84 83 82 80 78 76 76 75 73 72 72 72 72 71 71 70 69 70 70 70 70 69 69 71 72 72 72 72 73 73 74 74 76 77 78 79 80 81 82 83 85 87 88 89 90 90 91 91 91 92
93 93 93 93 94 94 95 95 95 96 97 96 95 96 97 98 99 98 94 90 90 91 91 89 88 87 86 84 82 81 81 79 75 75 80 83 83 83 84 82 80 79 79 78 77 75 74 73 72 70 69 68 67 68 68 68 68 68 67 66 66 67 69 70 71 71 71 72 72 73 75 76 77 78 80 81 82 84 85 86 87 87 88 88 88 88
92 92 92 92 93 93 94 94 94 96 97 96 95 96 97 97 98 98 95 91 89 89 89 87 86 85 84 82 80 79 79 80 77 75 76 78 79 81 82 82 81 80 80 79 78 76 74 72 71 69 67 66 65 65 65 64 65 66 66 64 63 63 65 67 68 69 70 70 71 71 72 73 73 74 76 77 79 81 82 83 84 84 85 85 85 85
92 91 91 92 93 93 93 94 94 95 95 95 95 95 96 96 96 96 93 91 89 87 85 84 83 83 82 80 78 76 76 77 77 76 75 75 76 76 78 79 79 79 79 78 77 75 72 71 71 69 66 64 62 62 61 61 62 64 64 64 63 62 63 64 65 66 68 69 70 70 71 71 71 71 72 73 74 76 78 79 80 81 82 82 83 83
93 93 93 93 94 94 93 94 95 94 93 93 93 93 94 94 94 93 91 88 87 85 83 82 81 80 79 77 74 73 72 73 73 73 73 72 73 73 73 74 74 74 75 76 75 73 71 69 69 68 65 62 60 59 59 59 59 61 62 62 63 63 62 62 61 62 63 65 67 68 69 69 70 70 70 71 71 72 73 75 76 77 78 79 80 81
94 95 95 95 95 95 94 93 95 95 94 93 93 93 92 92 92 92 89 86 83 82 82 80 79 78 77 74 71 68 68 68 69 70 71 70 70 70 70 69 69 69 70 72 73 72 70 69 68 66 64 61 59 57 57 57 58 58 59 60 61 61 62 61 61 60 60 61 63 64 66 66 67 68 68 69 69 70 71 71 72 73 74 76 77 78
96 96 96 96 95 95 94 93 94 94 94 93 92 91 91 91 91 90 89 86 82 80 80 79 77 75 73 72 69 66 65 66 66 67 68 67 66 67 67 66 67 67 67 69 70 69 69 68 66 63 62 60 58 57 56 55 55 57 58 58 58 58 60 61 61 60 60 60 60 61 62 63 64 65 65 66 67 68 69 69 70 70 71 72 73 75
97 97 97 97 96 95 93 92 92 91 91 92 91 90 90 90 90 89 89 87 82 79 79 79 77 74 72 71 69 66 65 66 65 64 65 65 64 64 65 64 65 65 65 65 66 66 67 66 63 61 60 59 57 56 55 54 53 54 56 56 56 56 57 58 59 59 59 58 59 59 60 61 61 62 62 63 64 65 66 67 67 68 69 70 71 72
98 97 97 97 96 94 91 89 88 86 87 89 90 88 88 87 86 87 88 87 83 80 78 78 77 75 73 71 69 66 66 66 65 63 63 64 64 63 64 64 64 64 64 63 62 63 64 63 62 60 59 58 57 55 55 54 53 53 54 54 54 55 56 56 57 57 57 57 57 57 58 59 59 60 60 61 61 62 63 64 65 65 66 67 68 69
98 97 96 95 94 92 90 88 84 82 82 85 88 88 87 86 84 83 84 86 84 82 79 78 76 75 72 71 69 66 65 66 65 63 62 64 64 63 63 63 63 63 62 61 61 62 62 61 60 60 59 58 57 55 54 53 52 52 52 52 53 54 54 54 55 55 55 55 55 56 56 57 57 58 58 59 59 60 61 62 63 63 64 64 65 66
99 97 96 95 93 91 89 86 83 80 79 81 83 84 85 86 83 80 80 81 82 81 79 76 75 75 74 72 70 67 65 65 65 63 62 62 62 62 62 62 62 62 61 59 60 61 60 60 60 59 59 58 56 55 54 52 51 51 50 50 51 52 53 53 53 53 54 54 54 54 54 55 55 56 56 57 58 59 59 60 61 62 62 62 63 64
99 97 96 94 92 90 88 85 82 78 76 75 76 76 77 79 78 76 76 77 77 77 76 73 71 72 72 72 70 67 64 63 63 62 61 61 61 60 60 60 60 60 59 59 59 60 59 59 59 59 59 58 56 55 54 52 51 50 49 49 50 50 51 51 52 52 52 52 53 53 53 53 54 54 54 55 56 56 57 58 59 60 60 61 62 62
99 97 95 93 91 89 88 86 82 79 76 74 73 72 73 73 73 71 71 72 72 73 72 69 67 67 67 67 67 65 61 60 60 60 59 60 60 59 58 58 57 57 58 58 59 59 58 58 57 57 57 56 55 54 53 52 50 49 48 48 49 49 49 49 49 49 50 51 51 51 52 52 53 53 53 53 54 54 55 56 56 57 58 59 60 60
Wind_Direction
320 320 319 319 319 320 320 322 322 322 321 320 319 317 315 314 312 309 307 304 303 301 299 299 298 294 293 293 292 289 284 277 273 271 270 269 268 267 266 265 265 264 263 263 263 262 262 261 261 260 260 260 259 258 258 257 257 257 257 257 257 257 257 257 257 258 258 258 259 259 259 259 259 259 259 259 259 259 259 260 260 260 260 260 260 260
320 320 320 320 320 321 321 323 324 324 323 322 321 320 318 317 315 312 311 308 305 302 300 300 298 295 294 294 292 291 288 283 279 275 272 270 268 267 266 265 263 263 262 263 263 262 262 261 261 261 261 260 260 260 260 259 259 258 257 257 257 257 258 258 258 258 258 259 259 259 259 259 259 259 259 259 259 259 259 259 259 259 260 260 260 261
321 321 320 321 321 321 321 322 324 324 323 322 322 321 320 319 318 315 313 311 308 305 302 301 300 297 295 294 292 290 288 285 283 280 277 275 273 270 268 266 264 263 262 262 262 262 262 262 261 261 261 261 261 261 261 260 259 259 259 258 258 259 259 258 258 258 258 258 258 259 259 259 260 260 260 260 260 259 259 259 258 258 259 260 261 261
320 321 321 321 321 321 321 322 323 323 322 322 321 321 321 319 318 317 315 313 310 308 306 304 304 301 298 297 294 291 288 285 284 282 281 280 278 276 273 270 268 267 266 264 264 263 263 263 263 262 262 262 262 261 261 260 260 260 260 260 259 259 259 259 259 259 259 259 259 259 260 260 260 260 260 260 260 260 259 259 259 259 259 260 261 261
319 320 321 321 321 321 321 321 322 323 322 321 319 320 320 318 318 317 315 313 311 310 308 306 306 303 300 299 295 292 289 286 284 281 280 280 280 279 278 276 274 272 271 270 268 267 266 265 265 264 264 264 264 263 263 262 262 262 262 261 260 259 259 259 259 259 259 260 260 260 260 260 260 260 260 260 260 260 260 260 260 260 260 260 260 261
318 320 320 321 321 321 321 321 321 321 321 319 318 318 318 317 316 316 314 313 312 311 310 307 304 303 302 300 296 294 293 289 285 282 279 278 278 278 278 278 277 277 277 276 275 274 272 270 269 268 267 267 267 266 265 265 265 264 263 263 262 261 261 260 260 259 259 259 259 259 259 259 259 259 259 259 259 259 259 259 260 260 260 260 260 260
319 320 320 321 321 320 320 320 319 320 319 318 317 317 316 316 315 315 313 312 312 313 312 307 301 300 304 299 294 296 295 291 288 285 282 280 279 279 278 279 280 281 281 281 280 279 278 276 274 273 271 270 270 269 268 268 267 266 266 265 265 264 263 262 261 260 260 260 260 260 260 260 260 260 260 259 259 259 259 259 260 260 260 260 260 260
319 320 319 320 320 319 319 319 318 318 318 317 316 315 315 315 314 313 311 311 312 312 313 308 299 298 303 294 291 293 292 289 288 288 287 286 285 284 283 282 283 283 283 282 281 280 279 277 276 274 273 272 271 270 269 269 268 268 267 267 266 265 265 264 263 262 262 261 261 261 261 261 261 261 260 260 259 259 260 260 260 260 260 260 260 260
320 319 319 319 319 318 318 318 317 317 317 316 315 314 314 313 313 311 310 311 310 310 312 306 298 298 301 293 290 288 284 284 286 289 292 294 293 290 288 286 285 284 283 281 280 279 277 276 274 273 272 271 270 269 269 269 268 268 267 267 267 266 265 264 264 263 263 262 262 262 262 262 262 262 261 261 261 261 261 261 261 261 261 260 260 260
319 319 318 319 318 317 317 317 317 316 316 315 314 313 313 313 312 310 310 310 308 309 310 303 298 299 299 294 289 285 282 283 286 290 294 297 296 293 290 287 285 283 281 280 279 277 276 274 273 272 270 269 268 267 267 267 266 266 267 267 267 267 267 266 265 264 263 263 262 262 262 262 262 262 262 262 262 262 262 262 262 262 261 261 261 261
319 318 317 317 317 317 317 316 316 315 315 314 313 313 312 311 310 309 310 309 307 308 307 301 299 300 299 294 287 284 284 286 288 290 292 293 293 293 290 288 285 283 281 280 279 278 277 275 274 272 271 269 269 268 267 266 265 265 265 265 265 265 266 266 266 265 265 264 264 263 263 262 262 261 261 262 262 262 263 263 263 262 262 262 262 262
318 317 316 316 316 316 316 316 315 315 314 313 313 313 311 311 310 309 310 308 307 307 305 302 301 300 300 296 289 286 286 287 287 287 287 287 288 289 288 288 286 285 283 282 280 279 279 278 276 274 273 271 270 270 269 268 267 267 266 265 264 264 264 264 264 264 264 264 264 264 264 263 263 263 262 262 262 262 262 262 262 262 262 263 263 263
316 316 315 316 316 316 315 315 314 314 314 313 313 312 311 312 311 309 309 308 306 306 304 303 302 300 300 296 290 289 289 288 287 285 284 283 283 283 284 285 285 285 284 282 280 279 278 278 277 277 275 274 272 270 270 270 269 268 267 266 266 265 265 265 264 264 263 263 262 262 262 262 263 263 263 263 263 262 262 262 262 262 262 262 262 262
314 314 314 315 315 315 315 314 314 314 313 313 312 311 312 312 311 309 309 307 306 305 303 303 301 299 299 295 290 289 289 288 288 286 283 281 279 279 280 281 282 282 281 280 279 277 276 275 275 275 275 275 274 272 271 270 270 269 267 267 267 267 266 266 266 266 265 265 264 263 262 262 262 262 262 262 262 262 262 262 262 261 261 261 261 261
312 314 313 313 314 313 313 313 313 313 312 311 311 311 312 312 310 310 309 308 306 305 303 304 301 298 297 293 290 290 290 288 287 285 283 281 279 277 277 277 277 277 277 277 276 275 274 273 272 271 271 272 272 272 272 271 270 270 269 268 267 267 267 267 266 266 265 265 265 265 264 264 263 262 262 262 261 261 261 261 261 261 261 261 261 261
313 314 314 314 313 312 311 312 312 312 311 310 311 311 311 310 309 309 309 308 307 305 304 304 301 299 297 292 290 292 291 288 286 284 283 281 279 276 274 273 274 274 274 274 274 274 273 272 271 269 268 268 268 269 269 269 269 269 269 269 268 267 267 267 267 266 265 264 264 265 265 264 264 263 263 263 262 261 261 260 260 260 260 260 260 260
312 314 314 313 313 312 311 312 311 310 309 310 310 310 309 309 308 308 307 307 306 305 305 304 301 299 297 294 294 294 291 289 287 285 284 282 280 278 275 272 272 272 273 273 273 273 272 272 271 269 268 267 266 265 265 266 266 266 267 267 267 267 267 267 267 267 266 265 265 264 264 265 264 264 264 264 263 263 262 262 261 261 261 260 260 260
311 313 314 313 312 312 312 312 311 309 310 310 309 309 308 308 308 307 306 306 305 304 303 302 300 299 298 296 296 294 292 290 289 287 285 283 282 280 278 275 272 271 271 272 273 272 271 270 270 269 268 267 265 264 263 263 263 264 264 264 265 265 265 265 265 266 267 267 267 266 265 265 264 264 264 264 263 263 263 262 262 262 261 261 261 261
310 311 313 313 312 312 312 312 310 309 310 309 308 308 307 307 306 306 305 304 303 302 301 300 299 298 298 297 295 293 292 290 288 287 286 284 282 281 279 277 275 272 270 270 271 272 271 270 269 269 268 267 266 265 264 263 262 262 262 262 263 263 263 264 264 264 265 266 266 266 266 266 265 265 264 263 263 262 261 261 261 261 261 261 261 261
310 311 313 314 312 312 312 310 309 309 308 307 307 306 306 305 305 304 303 303 302 300 300 299 299 298 298 297 295 293 291 289 287 286 284 282 281 279 278 277 275 274 272 269 269 270 271 270 269 269 268 268 268 266 265 264 263 262 261 261 261 262 262 262 263 263 263 263 263 264 265 265 265 265 265 264 263 262 261 260 259 259 259 260 261 261
311 312 313 313 312 312 311 309 309 308 307 306 306 306 306 305 304 303 302 302 300 299 299 299 299 299 299 297 295 292 290 288 286 283 281 280 279 277 276 275 274 273 272 271 269 268 269 270 270 269 268 268 268 268 267 266 265 264 263 262 262 261 261 261 262 262 262 262 262 262 262 263 263 264 264 264 264 264 263 262 260 259 258 259 259 260
311 311 312 312 312 311 310 309 308 308 307 307 307 307 306 305 304 302 302 301 299 299 299 299 299 300 299 296 293 291 289 287 285 282 281 279 278 276 275 274 273 271 271 270 270 268 267 268 268 269 268 268 268 268 268 267 266 265 264 263 262 262 262 262 261 261 261 261 261 261 261 261 262 262 263 264 264 264 264 264 263 262 261 260 260 261
311 311 311 311 311 311 310 309 309 309 308 308 308 307 306 304 303 302 301 300 299 299 300 299 299 301 300 296 294 292 290 288 286 284 282 280 278 277 276 274 273 272 271 270 270 269 268 268 268 268 268 268 267 267 267 267 267 266 266 265 264 263 262 262 262 261 261 261 261 260 260 260 261 262 262 263 263 264 264 265 265 265 264 264 263 263
311 311 311 311 312 312 311 310 309 309 308 308 308 307 306 304 304 303 303 302 301 302 302 300 300 302 301 298 297 295 293 292 290 288 287 285 283 281 279 278 276 274 273 272 270 270 269 269 269 269 269 268 268 268 267 267 267 266 266 266 265 264 263 263 262 262 261 261 260 260 260 260 260 261 262 262 263 263 264 264 265 265 266 265 265 265
311 312 311 312 312 312 310 309 309 308 309 309 309 308 307 306 305 305 305 304 304 305 304 302 303 303 302 300 299 297 296 295 294 293 291 290 288 286 284 282 280 278 276 274 272 271 270 270 269 269 269 270 269 269 269 268 268 267 266 265 265 265 264 264 263 262 261 261 260 260 260 260 260 260 261 261 262 262 263 263 264 264 265 265 265 266
312 312 312 312 312 312 311 310 309 309 309 309 308 307 307 306 306 305 304 304 304 304 303 302 302 302 302 300 299 298 298 297 296 295 294 292 290 288 286 284 283 281 279 277 275 274 272 271 270 270 269 270 270 270 270 270 269 268 267 266 265 264 264 264 263 263 262 261 261 260 260 260 259 260 260 261 261 262 262 263 263 263 264 264 265 265
313 312 312 313 313 313 312 311 311 311 312 311 309 308 307 306 305 304 303 302 302 302 301 300 299 300 299 298 297 297 297 296 296 295 294 293 291 289 288 287 285 283 282 281 279 277 275 273 272 271 270 269 269 269 269 269 269 269 269 268 267 265 264 263 263 262 262 262 261 260 260 260 259 259 260 260 261 262 262 263 263 263 263 264 264 264
313 313 313 313 313 313 312 312 313 314 313 312 310 309 307 307 306 304 303 302 301 301 300 299 298 298 297 295 295 295 295 294 294 293 292 292 291 290 289 289 288 286 285 283 281 279 277 276 275 273 272 271 270 269 269 268 268 268 268 268 267 267 265 264 263 262 262 261 261 261 260 260 260 259 259 259 260 261 261 262 262 263 263 263 263 264
313 313 313 313 313 313 313 313 314 314 313 312 311 310 309 308 307 306 305 304 303 302 301 300 299 299 297 296 295 294 293 293 292 292 291 290 289 289 289 289 289 288 286 285 284 283 281 279 277 275 274 274 273 272 271 270 270 269 269 268 268 267 267 266 264 263 262 261 261 261 261 260 260 260 259 259 259 259 260 260 261 261 262 262 263 263
313 312 312 313 315 314 313 313 314 313 312 312 311 310 310 309 308 307 305 304 303 303 301 300 299 298 297 296 295 294 293 292 291 291 290 289 288 287 287 287 287 286 285 284 284 283 282 281 279 278 276 275 274 273 272 272 271 271 271 271 270 269 269 268 267 265 264 262 261 261 260 260 260 260 260 259 259 259 259 259 260 260 261 261 262 262
313 313 314 315 315 314 312 312 313 312 311 311 310 309 308 308 307 306 305 303 303 302 301 300 299 298 297 296 295 294 293 292 292 291 289 287 286 286 286 286 285 284 283 282 282 281 281 280 279 278 277 276 275 274 273 272 271 271 271 271 270 270 269 269 268 267 266 265 263 262 261 260 260 260 260 260 260 259 259 259 259 259 260 260 261 261
314 315 315 315 315 314 312 312 312 312 312 311 310 310 309 309 308 307 306 305 303 302 302 301 300 299 298 297 296 296 295 294 293 292 290 288 287 287 287 285 284 283 282 281 280 280 279 279 278 277 277 276 275 274 274 273 272 271 271 271 270 270 269 269 268 268 267 266 265 263 262 261 260 259 259 259 259 259 259 259 259 260 260 260 260 261
315 315 315 314 314 314 313 313 313 313 313 313 312 312 312 311 311 310 309 308 306 305 304 302 301 299 298 297 296 296 296 296 295 294 292 290 289 289 289 288 286 285 283 282 281 280 279 278 277 277 277 276 276 275 275 274 274 273 273 272 272 272 271 270 269 268 267 266 265 264 263 262 261 260 259 259 259 259 259 259 260 260 260 260 260 261
316 315 315 314 314 314 313 313 313 313 313 313 313 312 312 312 311 310 310 309 307 307 306 305 304 302 300 299 298 297 297 296 295 294 293 291 290 290 290 289 288 287 286 284 283 281 279 278 278 278 277 277 277 276 276 276 276 276 276 275 274 274 273 272 270 269 268 267 266 265 264 263 262 261 261 260 260 259 259 259 259 259 260 260 260 260
315 315 314 314 314 314 313 312 312 312 311 310 310 310 310 310 309 309 309 308 307 307 307 307 306 304 303 301 300 300 299 298 297 295 293 292 291 291 290 289 289 288 287 286 285 284 283 281 280 280 280 279 278 278 277 277 277 277 277 276 275 273 272 271 270 269 268 267 265 265 264 263 263 262 262 261 261 260 260 260 260 260 260 260 260 260
315 314 314 313 313 313 312 312 311 311 310 309 308 309 309 308 308 308 308 307 306 306 307 307 306 305 303 303 302 301 301 300 299 297 294 293 293 293 292 291 291 290 289 288 287 286 285 284 283 282 282 282 281 280 279 278 278 277 276 275 273 272 271 270 269 269 268 267 266 265 264 263 263 262 262 262 261 261 261 260 260 260 260 260 260 260
314 313 313 312 312 312 311 311 311 310 309 308 308 308 308 307 306 307 308 307 305 304 305 305 304 303 302 302 301 301 300 300 299 297 295 295 295 295 294 293 292 291 290 289 289 288 288 288 287 286 285 284 283 282 280 279 278 278 276 274 273 272 271 270 269 268 268 267 266 265 264 263 262 262 262 262 262 261 261 261 261 261 261 261 261 261
312 312 312 312 312 311 311 311 310 309 308 308 308 308 307 306 306 306 307 307 305 304 303 303 303 302 301 301 301 300 300 299 298 295 294 295 295 295 295 294 293 293 292 292 292 292 292 292 291 290 288 287 285 284 282 280 279 277 276 274 274 273 272 271 269 268 267 266 266 265 265 264 263 262 262 262 262 261 261 261 261 261 261 261 261 262
311 311 311 311 311 311 310 310 310 309 308 308 309 308 307 306 306 306 307 307 306 304 304 303 303 303 302 301 301 300 299 298 297 294 293 294 296 296 295 295 296 296 296 295 295 295 294 294 292 291 290 289 288 287 285 283 281 279 277 276 276 275 274 272 271 269 267 266 265 265 264 264 264 263 263 262 262 262 262 262 262 262 262 262 262 262
311 311 311 311 311 310 310 310 309 309 308 309 310 309 307 307 307 306 307 308 306 305 304 304 304 304 303 302 302 301 300 299 298 296 294 295 296 296 296 297 297 297 297 297 297 296 296 295 293 292 291 290 289 287 285 284 283 282 280 278 277 276 275 274 272 271 269 268 266 265 264 264 264 264 264 263 263 263 263 263 263 263 263 263 263 263
312 311 311 311 310 309 309 309 309 309 309 310 310 309 308 307 306 306 307 307 307 306 305 304 304 304 303 303 302 301 300 300 299 297 295 294 294 294 294 295 295 295 295 295 295 295 295 295 294 293 292 290 289 287 286 285 284 283 282 280 277 274 273 272 271 271 271 270 269 268 267 266 265 264 264 263 263 263 264 264 264 264 264 264 264 263
313 312 312 311 310 310 310 310 310 310 310 310 310 308 307 307 306 306 306 307 306 306 306 305 304 303 303 303 303 302 301 299 298 297 295 294 293 292 292 292 293 293 294 294 294 294 295 295 294 293 292 291 289 288 287 286 285 283 282 281 278 276 273 271 270 270 271 271 271 270 270 269 267 266 264 263 263 262 263 263 263 263 264 264 264 263
313 313 313 312 312 312 312 312 311 311 311 310 309 308 307 306 305 306 306 306 306 307 306 306 305 303 303 303 303 302 301 299 297 296 295 293 292 292 291 291 292 292 293 293 294 295 296 296 295 294 293 292 291 289 288 287 285 283 281 281 279 278 276 274 272 270 270 269 269 269 269 269 268 267 266 265 264 263 262 262 262 262 262 263 263 263
315 314 314 314 313 314 314 314 313 313 312 311 310 309 308 307 306 306 307 308 308 307 307 306 305 305 305 304 304 302 301 298 297 295 294 294 294 294 293 293 293 293 294 294 295 296 297 296 295 294 294 293 292 290 289 288 286 284 282 280 279 279 278 277 275 273 271 269 268 268 268 267 267 267 266 266 265 264 263 263 262 262 261 261 262 262
316 315 315 315 315 315 316 316 315 314 313 312 311 310 309 308 309 309 309 309 310 309 308 307 306 306 305 305 304 304 301 299 297 296 296 296 296 296 296 295 295 295 295 295 296 296 296 295 294 294 295 294 293 292 290 288 287 285 283 281 280 279 279 278 277 275 274 272 270 269 267 267 266 266 265 265 265 265 264 264 264 263 263 262 262 262
317 316 317 317 317 317 317 317 315 315 315 314 312 312 311 311 311 311 310 311 311 311 309 309 308 308 308 306 306 305 303 301 301 300 300 300 299 298 298 297 297 297 296 296 296 296 295 295 295 296 296 295 294 293 292 290 288 285 283 283 282 280 278 278 277 276 275 274 273 271 269 268 267 266 266 265 265 265 265 264 264 264 264 264 264 264
318 318 318 318 318 318 318 317 316 317 316 314 313 312 312 312 312 312 312 312 313 312 311 310 310 310 310 308 307 307 306 305 304 304 303 302 301 301 300 299 299 298 297 297 297 296 296 296 298 298 297 296 296 295 293 291 289 286 285 284 283 281 279 278 278 277 276 275 274 272 271 270 269 268 268 267 267 266 266 265 265 265 265 264 265 265
319 320 319 319 319 319 319 318 318 319 318 316 314 314 314 313 314 314 313 313 313 313 312 312 312 311 310 309 308 309 308 307 307 307 305 303 302 302 301 300 300 299 299 299 299 297 297 298 299 299 298 297 297 296 294 292 290 288 287 286 284 283 282 280 279 278 277 276 274 273 272 271 270 269 269 269 268 268 268 267 267 267 266 266 265 265
321 322 321 321 321 320 320 320 320 320 319 317 315 315 314 314 314 314 313 312 312 312 312 312 313 312 311 310 310 311 311 309 308 307 306 304 303 302 301 301 301 300 301 301 300 299 299 300 299 299 298 298 297 296 294 292 291 290 289 288 286 285 284 282 281 280 278 277 276 274 273 272 271 270 269 269 269 269 269 269 269 268 268 267 267 266
323 323 323 322 322 321 321 321 321 321 320 317 315 314 313 313 313 314 312 311 311 311 311 313 313 311 311 311 311 311 311 310 308 307 306 304 303 303 302 302 302 302 302 302 300 300 300 300 299 299 298 298 297 296 295 293 292 291 290 289 287 286 284 283 281 280 279 278 277 276 275 273 272 271 270 270 269 269 269 268 268 269 269 269 268 268
324 324 324 323 323 323 322 322 322 322 321 319 317 315 314 313 314 314 312 311 311 311 312 313 312 310 310 310 310 310 310 309 308 307 306 305 304 304 303 303 303 303 303 301 300 300 300 299 298 298 298 298 298 297 295 294 293 292 291 289 288 286 284 282 281 280 279 278 277 276 275 274 273 273 272 271 270 270 269 269 268 268 268 268 268 268